www.pogodaiklimat.ru

Погода и климат >> Архив погоды >> Испания >> La Coruna


АРХИВ ПОГОДЫ в La Coruna

Время (UTC), дата Ветер
(напр.,м/с)
 
Видим.   Явления Облачность Т
(С)
Тd
(С)
f
(%)
Тe
(С)
Тes
(С)
Комфортность P
(гПа)
Po
(гПа)
Тmin
(С)
Tmax
(С)
R
(мм)
R24
(мм)
S
(см)
07 19.04 СЗ 2 6000 м н/о +13.3 +11.7 90 +12 +12 тепло 1021.8 1013.7
08 19.04 СВ 2 8000 м н/о +13.7 +11.9 89 +13 +13 тепло 1021.9 1013.8
09 19.04 С 2 12 км {туман} 8/6 200 м
[St Cc]
+14.7 +11.8 83 +14 +17 тепло 1021.8 1013.8
11 19.04 СЗ 3 10 км н/о +15.0 +12.1 83 +14 +14 тепло 1022.3 1014.3
10 19.04 СЗ 3 10 км н/о +15.3 +12.2 82 +15 +15 тепло 1021.9 1013.9
12 19.04 З 4 15 км {туман} 5/4 300 м
[St Ci fib]
+15.5 +12.4 82 +15 +22 по сезону 1021.9 1013.9
13 19.04 СЗ 3 10 км н/о +15.4 +12.7 84 +15 +15 тепло 1021.7 1013.7
14 19.04 З 6 9000 м н/о +15.8 +12.9 83 +14 +14 тепло 1021.6 1013.6
15 19.04 З 5 9000 м н/о +15.2 +12.7 85 +14 +14 по сезону 1021.4 1013.4
17 19.04 С 6 9000 м н/о +14.5 +12.2 86 +13 +13 тепло 1021.1 1013.1
16 19.04 СЗ 5 8000 м н/о +14.7 +12.6 87 +13 +13 по сезону 1021.3 1013.3
18 19.04 С 7 9000 м н/о +14.3 +12.2 87 +12 +12 по сезону 1021.0 1013.0 +16.2
19 19.04 С 5 9000 м н/о +14.2 +11.9 86 +12 +12 тепло 1021.4 1013.3
20 19.04 С 3 7000 м в посл. час дождь н/о +13.9 +11.9 88 +13 +13 тепло 1021.6 1013.5 0.0
21 19.04 С 4 15 км {дождь} 3/3 600 м
[Sc]
+14.0 +11.9 87 +12 +12 по сезону 1021.7 1013.6 0.0
23 19.04 С 3 9000 м н/о +13.7 +11.2 85 +12 +12 тепло 1021.3 1013.2
22 19.04 С 3 6000 м н/о +13.5 +12.2 92 +12 +12 тепло 1021.8 1013.7
00 20.04 СВ 3 15 км {дождь} 5/4 600 м
[Sc Ac lent]
+13.3 +12.0 92 +12 +12 по сезону 1021.1 1013.0
01 20.04 С 2 6000 м н/о +13.2 +11.9 92 +13 +13 тепло 1021.0 1012.9
02 20.04 СВ 2 6000 м н/о +13.0 +11.6 91 +12 +12 тепло 1020.8 1012.7
03 20.04 СВ 4 20 км 1/0
[Ac lent]
+13.1 +11.2 88 +11 +11 по сезону 1020.3 1012.2
05 20.04 СВ 3 7000 м н/о +12.5 +11.2 92 +11 +11 тепло 1019.8 1011.7
04 20.04 С 4 6000 м н/о +12.7 +11.6 93 +11 +11 тепло 1020.0 1011.9
06 20.04 СВ 4 7000 м н/о +12.7 +11.4 92 +11 +11 по сезону 1020.0 1011.9 +12.5
07 20.04 В 3 8000 м н/о +13.0 +11.4 90 +12 +12 тепло 1019.7 1011.6
08 20.04 СВ 2 8000 м н/о +13.5 +11.7 89 +13 +13 тепло 1019.9 1011.8
09 20.04 С 3 8000 м дымка 5/1 200 м
[Sc Ac trans Cs]
+13.8 +12.4 91 +13 +17 по сезону 1019.7 1011.6
11 20.04 С 4 8000 м н/о +15.7 +12.8 83 +15 +15 тепло 1019.5 1011.5
10 20.04 С 3 7000 м н/о +15.7 +13.0 84 +15 +15 тепло 1019.6 1011.6
12 20.04 С 5 12 км 3/1 200 м
[Sc Cs]
+15.2 +12.1 82 +14 +21 по сезону 1019.3 1011.3
13 20.04 С 5 9000 м н/о +15.6 +12.5 82 +14 +14 тепло 1018.5 1010.5
14 20.04 СЗ 5 8000 м н/о +14.5 +12.2 86 +13 +13 по сезону 1018.2 1010.2
15 20.04 СЗ 5 8000 м н/о +13.9 +11.9 88 +12 +12 по сезону 1017.8 1009.8
17 20.04 СЗ 5 8000 м н/о +13.5 +11.9 90 +12 +12 по сезону 1016.9 1008.9
16 20.04 СЗ 4 9000 м н/о +13.6 +12.0 90 +12 +12 по сезону 1017.3 1009.3
18 20.04 СЗ 4 8000 м н/о +13.3 +12.0 92 +11 +11 по сезону 1016.9 1008.9 +16.1
19 20.04 С 4 6000 м н/о +13.2 +12.1 93 +11 +11 тепло 1016.8 1008.8
20 20.04 З 1 6000 м н/о +13.2 +12.1 93 +13 +13 тепло 1017.0 1009.0
21 20.04 Ю 1 15 км 1/1 600 м
[St]
+13.1 +11.8 92 +13 +13 по сезону 1017.2 1009.1
23 20.04 ЮВ 2 н/о н/о +12.8 +11.7 93 +12 +12 тепло 1016.5 1008.4
22 20.04 Ю 1 6000 м н/о +13.0 +11.7 92 +13 +13 тепло 1016.9 1008.8
00 21.04 ЮВ 2 15 км ясно +12.6 +11.7 94 +12 +12 по сезону 1016.4 1008.3
01 21.04 Ю 1 2200 м н/о +12.2 +11.6 96 +12 +12 тепло 1016.2 1008.1
02 21.04 ЮВ 1 700 м н/о +12.1 +11.6 97 +12 +12 тепло 1015.6 1007.5
03 21.04 ЮВ 1 500 м туман 10/10 100 м
[St]
+12.0 +11.7 98 +12 +12 тепло 1015.2 1007.1
05 21.04 ЮВ 4 8000 м н/о +12.0 +11.5 97 +10 +10 тепло 1014.8 1006.7
04 21.04 ЮВ 2 600 м н/о +11.6 +11.3 98 +10 +10 тепло 1014.9 1006.8
06 21.04 штиль 0 15 км {туман} 4/0
[Ac lent Cs]
+12.3 +10.7 90 +12 +12 тепло 1015.0 1006.9 +11.4
07 21.04 СВ 1 6000 м н/о +13.0 +11.7 92 +14 +14 тепло 1015.2 1007.2
08 21.04 В 1 7000 м н/о +15.0 +12.1 83 +15 +15 тепло 1015.4 1007.4
09 21.04 С 2 8000 м мгла 4/0
[Cs]
+16.8 +12.9 78 +17 +25 тепло 1015.2 1007.3
11 21.04 СВ 2 9000 м н/о +19.7 +12.2 62 +22 +22 комфорт 1014.9 1007.0
10 21.04 СВ 2 9000 м н/о +17.8 +12.0 69 +19 +19 тепло 1015.2 1007.3
12 21.04 СВ 1 12 км 8/0
[Ac As Cs]
+19.8 +13.3 66 +23 +35 комфорт 1014.6 1006.8
13 21.04 СВ 1 8000 м н/о +19.9 +12.9 64 +23 +23 комфорт 1014.5 1006.7
14 21.04 С 2 10 км н/о +21.0 +11.9 56 +24 +24 комфорт 1014.6 1006.8
15 21.04 З 3 9000 м н/о +18.8 +13.2 70 +20 +20 тепло 1014.8 1006.9
17 21.04 З 2 8000 м н/о +17.4 +13.5 78 +18 +18 тепло 1015.1 1007.2
16 21.04 З 1 8000 м н/о +18.2 +13.9 76 +20 +20 тепло 1014.8 1006.9
18 21.04 З 1 7000 м н/о +16.4 +13.1 81 +17 +17 тепло 1015.6 1007.7 +21.1
19 21.04 СВ 1 6000 м н/о +15.4 +12.7 84 +16 +16 тепло 1015.9 1007.9
20 21.04 СВ 1 н/о н/о +14.3 +12.7 90 +15 +15 тепло 1015.9 1007.9
21 21.04 СЗ 1 6000 м 9/1 2000 м
[St Ac As]
+14.3 +12.5 89 +15 +15 тепло 1016.9 1008.9
23 21.04 З 4 7000 м н/о +14.7 +12.9 89 +14 +14 тепло 1017.7 1009.7
22 21.04 СВ 1 7000 м н/о +15.0 +12.5 85 +15 +15 тепло 1017.5 1009.5
00 22.04 З 1 3000 м дымка 10/6 300 м
[St Ac As]
+13.6 +12.7 94 +14 +14 тепло 1017.4 1009.4
01 22.04 ЮВ 2 4700 м н/о +13.6 +12.8 95 +13 +13 тепло 1017.5 1009.5
02 22.04 В 1 7000 м н/о +14.1 +12.3 89 +14 +14 тепло 1017.0 1009.0
03 22.04 З 4 5000 м 6/6 100 м
[St]
+13.8 +12.2 90 +12 +12 тепло 1016.7 1008.7
05 22.04 ЮВ 2 2100 м н/о +12.6 +12.1 97 +12 +12 тепло 1016.3 1008.2
04 22.04 З 2 600 м н/о +12.8 +12.2 96 +12 +12 тепло 1016.8 1008.7
06 22.04 ЮВ 2 6000 м 8/6 1000 м
[St Ac As]
+12.7 +12.1 96 +12 +12 тепло 1016.2 1008.1 +12.6
07 22.04 СЗ 3 4700 м н/о +13.3 +12.2 93 +12 +12 тепло 1016.8 1008.8
08 22.04 З 3 н/о н/о +13.5 +12.6 94 +12 +12 тепло 1017.2 1009.2
09 22.04 З 3 3000 м дымка 10/10 300 м
[St]
+13.3 +12.2 93 +12 +12 по сезону 1017.5 1009.5
11 22.04 СЗ 4 7000 м н/о +13.5 +12.1 91 +12 +12 по сезону 1018.0 1010.0
10 22.04 З 2 6000 м н/о +13.5 +12.1 91 +13 +13 по сезону 1017.7 1009.7
12 22.04 З 3 8000 м дымка 10/10 300 м
[St]
+14.1 +12.1 88 +13 +13 по сезону 1017.6 1009.6
13 22.04 СЗ 2 9000 м н/о +14.5 +11.8 84 +14 +14 тепло 1017.4 1009.4
14 22.04 С 3 8000 м н/о +14.4 +11.9 85 +13 +13 по сезону 1017.6 1009.6
15 22.04 С 4 8000 м н/о +13.6 +11.6 88 +12 +12 по сезону 1017.7 1009.7
17 22.04 С 5 10 км н/о +13.1 +10.3 83 +11 +11 по сезону 1018.1 1010.0
16 22.04 С 4 10 км н/о +13.5 +10.8 84 +12 +12 по сезону 1017.5 1009.5
18 22.04 С 3 11 км н/о +13.0 +10.4 84 +12 +12 по сезону 1018.4 1010.3 +14.8
19 22.04 С 5 12 км н/о +12.7 +10.2 85 +11 +11 тепло 1018.8 1010.7
20 22.04 С 4 12 км н/о +12.7 +10.2 85 +11 +11 по сезону 1019.5 1011.4
21 22.04 СВ 4 20 км 4/4 300 м
[Sc]
+12.5 +9.5 82 +11 +11 по сезону 1020.2 1012.1
23 22.04 СВ 3 12 км н/о +12.1 +9.5 84 +11 +11 тепло 1020.5 1012.4
22 22.04 СВ 3 13 км н/о +12.3 +9.1 81 +11 +11 тепло 1020.4 1012.3
00 23.04 СВ 3 20 км 3/3 300 м
[Sc]
+11.9 +9.1 83 +10 +10 по сезону 1020.5 1012.4
01 23.04 СВ 4 12 км н/о +12.0 +9.0 82 +10 +10 тепло 1020.4 1012.3
02 23.04 СВ 3 13 км н/о +12.2 +9.2 82 +11 +11 тепло 1020.4 1012.3
03 23.04 СВ 4 18 км 5/5 300 м
[Sc]
+12.0 +9.0 82 +10 +10 по сезону 1020.1 1012.0
05 23.04 СВ 3 11 км н/о +11.6 +8.8 83 +10 +10 тепло 1020.3 1012.2
04 23.04 СВ 4 12 км н/о +11.6 +8.8 83 +10 +10 тепло 1019.9 1011.8
06 23.04 СВ 4 18 км 8/8 200 м
[Sc]
+11.3 +8.9 85 +9 +9 по сезону 1020.7 1012.6 +11.3
07 23.04 СВ 4 11 км н/о +12.0 +9.2 83 +10 +10 по сезону 1021.0 1012.9
08 23.04 В 5 11 км н/о +13.3 +9.2 76 +11 +11 по сезону 1021.0 1012.9
09 23.04 СВ 3 20 км 9/9 300 м
[Sc]
+12.9 +9.7 81 +11 +12 по сезону 1021.4 1013.3
11 23.04 С 3 10 км н/о +15.7 +11.9 78 +15 +15 тепло 1021.6 1013.6
10 23.04 В 2 11 км н/о +13.9 +10.5 80 +14 +14 по сезону 1021.7 1013.6
12 23.04 С 5 25 км 4/1 300 м
[Cu hum Cs]
+15.4 +12.0 80 +14 +21 по сезону 1020.8 1012.8
13 23.04 С 6 11 км н/о +15.5 +12.1 80 +14 +14 тепло 1020.3 1012.3
14 23.04 С 7 11 км н/о +15.3 +11.9 80 +14 +14 тепло 1020.3 1012.3
15 23.04 С 6 11 км н/о +15.0 +11.8 81 +13 +13 по сезону 1019.6 1011.6
17 23.04 СЗ 3 10 км н/о +14.7 +12.2 85 +14 +14 тепло 1019.1 1011.1
16 23.04 С 4 10 км н/о +14.8 +11.9 83 +14 +14 тепло 1019.4 1011.4
18 23.04 СЗ 3 10 км н/о +14.4 +12.1 86 +14 +14 по сезону 1019.0 1011.0 +15.9
19 23.04 С 3 9000 м н/о +13.8 +11.8 88 +13 +13 тепло 1019.1 1011.1
20 23.04 С 2 7000 м н/о +13.5 +11.9 90 +13 +13 тепло 1019.8 1011.7
21 23.04 В 2 15 км 1/0
[Ci fib]
+13.6 +11.3 86 +13 +13 по сезону 1020.5 1012.4
23 23.04 СВ 3 9000 м н/о +12.9 +11.0 88 +12 +12 тепло 1020.3 1012.2
22 23.04 С 3 8000 м н/о +13.4 +11.5 88 +12 +12 тепло 1020.4 1012.3
00 24.04 СВ 3 15 км 3/0
[Ci fib]
+12.7 +11.1 90 +11 +11 по сезону 1020.1 1012.0
01 24.04 СВ 3 8000 м н/о +12.8 +11.4 91 +12 +12 тепло 1019.9 1011.8
02 24.04 В 2 11 км н/о +12.9 +11.0 88 +12 +12 тепло 1019.5 1011.4
03 24.04 В 2 15 км 9/9 300 м
[St Ci fib]
+12.9 +10.6 86 +12 +12 тепло 1019.2 1011.1
05 24.04 СВ 1 4400 м н/о +12.3 +10.2 87 +12 +12 тепло 1018.9 1010.8
04 24.04 В 1 6000 м н/о +12.8 +10.5 86 +13 +13 тепло 1019.0 1010.9
06 24.04 СЗ 1 10 км 4/1 300 м
[St Ci fib]
+11.9 +10.1 89 +12 +12 тепло 1019.3 1011.2 +11.9
07 24.04 В 1 4500 м н/о +13.0 +11.2 89 +13 +13 тепло 1019.8 1011.7
08 24.04 СВ 1 н/о н/о +15.2 +11.6 79 +16 +16 тепло 1019.9 1011.9
09 24.04 С 2 12 км 3/3 200 м
[St Ci fib]
+16.1 +11.9 76 +16 +21 тепло 1020.0 1012.0
11 24.04 С 4 10 км н/о +16.5 +13.0 80 +16 +16 тепло 1020.2 1012.2
10 24.04 С 2 10 км н/о +16.8 +12.1 74 +17 +17 тепло 1019.9 1011.9
12 24.04 СЗ 4 18 км 5/4 300 м
[St Ci fib]
+15.6 +12.7 83 +15 +22 по сезону 1020.2 1012.2
13 24.04 С 5 10 км н/о +14.9 +12.4 85 +14 +14 тепло 1020.5 1012.5
14 24.04 С 5 10 км н/о +14.4 +12.3 87 +13 +13 по сезону 1020.7 1012.7
15 24.04 С 5 10 км н/о +14.3 +12.2 87 +13 +13 по сезону 1020.4 1012.4
17 24.04 С 4 10 км н/о +14.0 +12.0 88 +12 +12 тепло 1020.4 1012.3
16 24.04 СЗ 4 10 км н/о +14.4 +12.1 86 +13 +13 по сезону 1020.2 1012.2
18 24.04 С 6 10 км н/о +13.9 +11.9 88 +12 +12 по сезону 1020.5 1012.4 +17.2
19 24.04 С 6 9000 м н/о +13.3 +11.7 90 +11 +11 тепло 1020.8 1012.7
20 24.04 С 5 8000 м н/о +13.1 +11.8 92 +11 +11 по сезону 1021.5 1013.4
21 24.04 С 5 20 км 9/9 300 м
[Sc]
+12.9 +12.0 94 +11 +11 по сезону 1022.1 1014.0
23 24.04 С 4 10 км н/о +12.8 +11.4 91 +11 +11 тепло 1022.2 1014.1
22 24.04 С 4 10 км н/о +13.0 +11.6 91 +11 +11 тепло 1022.4 1014.3
00 25.04 С 2 20 км 3/3 300 м
[Sc]
+12.4 +11.1 92 +11 +11 по сезону 1022.0 1013.9
01 25.04 СЗ 3 9000 м н/о +12.3 +10.9 91 +11 +11 тепло 1022.2 1014.1
02 25.04 С 2 9000 м н/о +12.1 +10.3 89 +11 +11 тепло 1022.0 1013.9
03 25.04 С 3 20 км 5/1 300 м
[Cu hum Ac As]
+12.3 +10.9 91 +11 +11 по сезону 1022.2 1014.1
05 25.04 ЮВ 2 10 км н/о +12.3 +10.9 91 +12 +12 тепло 1022.5 1014.4
04 25.04 СВ 2 10 км н/о +12.3 +11.0 92 +12 +12 тепло 1022.3 1014.2
06 25.04 СВ 1 12 км 10/10 200 м
[St]
+12.4 +11.0 91 +12 +12 тепло 1023.3 1015.2 +12.1 0.0
07 25.04 С 2 1700 м слаб. морось н/о +12.3 +11.5 95 +12 +12 тепло 1023.7 1015.6 0.0
08 25.04 С 5 1700 м морось с дождем н/о +12.3 +12.0 98 +10 +10 по сезону 1024.4 1016.3 0.6
09 25.04 С 6 5000 м слабая морось 10/10 200 м
[Frnb]
+11.8 +11.3 97 +9 +9 прохладно 1025.3 1017.1 0.8
11 25.04 С 6 10 км н/о +13.7 +9.7 77 +12 +12 по сезону 1026.1 1018.0
10 25.04 СВ 5 12 км н/о +12.6 +10.3 86 +10 +10 прохладно 1026.0 1017.9
12 25.04 С 7 25 км {морось} 5/5 300 м
[Cu Sc Ac trans Ci sp]
+14.1 +9.1 72 +12 +15 по сезону 1026.3 1018.2
13 25.04 С 7 10 км н/о +14.3 +9.3 72 +12 +12 по сезону 1026.2 1018.1
14 25.04 С 7 10 км н/о +14.3 +8.9 70 +12 +12 по сезону 1026.4 1018.3
15 25.04 С 6 9000 м н/о +14.1 +8.9 71 +12 +12 по сезону 1026.0 1017.9
17 25.04 С 7 9000 м н/о +13.2 +8.7 74 +11 +11 по сезону 1025.7 1017.6
16 25.04 С 7 9000 м н/о +13.6 +8.8 73 +11 +11 по сезону 1025.7 1017.6
18 25.04 С 7 9000 м н/о +12.9 +9.0 77 +10 +10 прохладно 1025.6 1017.5 +14.4
19 25.04 С 8 9000 м н/о +12.6 +8.9 78 +10 +10 по сезону 1025.9 1017.8
20 25.04 СВ 5 8000 м н/о +12.3 +8.9 80 +10 +10 по сезону 1026.7 1018.5
21 25.04 СВ 5 20 км 1/1 300 м
[Cu hum]
+12.1 +8.8 80 +10 +10 по сезону 1027.0 1018.8
23 25.04 СВ 4 8000 м н/о +11.8 +8.6 81 +10 +10 тепло 1026.4 1018.2
22 25.04 СВ 4 9000 м н/о +12.1 +8.8 80 +10 +10 по сезону 1026.9 1018.7
00 26.04 СВ 4 20 км 5/4 300 м
[Cu hum Ac lent]
+11.7 +8.9 83 +10 +10 по сезону 1026.4 1018.2
01 26.04 СВ 3 8000 м н/о +11.4 +8.6 83 +10 +10 тепло 1026.0 1017.8
02 26.04 СВ 5 8000 м н/о +11.4 +8.3 81 +9 +9 по сезону 1025.3 1017.1
03 26.04 СВ 4 20 км ясно +11.2 +8.2 82 +9 +9 по сезону 1025.0 1016.8
05 26.04 СВ 3 8000 м н/о +10.9 +8.1 83 +9 +9 по сезону 1024.5 1016.3
06 26.04 СВ 2 18 км 4/1 300 м
[Cu Sc Ac trans Ci fib]
+10.7 +8.1 84 +9 +9 по сезону 1024.4 1016.2 +10.7

 

Местоположение метеостанции La Coruna (Испания): широта 43.37 долгота -8.42 высота над уровнем моря 67 м.

В архиве по умолчанию представлена погода в La Coruna за последнюю неделю. Архивные данные за месяц целиком и за предыдущие месяцы, начиная с января 2011 года, Вы можете получить, выбрав интересующий диапазон дат из раскрывающегося списка и нажав кнопку "Ввод!".


*Определитесь, кто Вы:
робот инопланетянин человек

Внимание! Время в таблицах - всемирное. Для получения местного времени необходимо прибавить поправку, которая в La Coruna равна 1 ч.

Смотрите также архив погоды в соседних городах и на ближайших метеорологических станциях:

Погода в Santiago (Испания) (52 км)
Погода в Lugo (Испания) (83 км)
Погода в Pontevedra (Испания) (106 км)
Погода в Orense (Испания) (124 км)
Погода в Vigo (Испания) (128 км)
Погода в Ponferrada (Испания) (177 км)
Погода в Aviles (Испания) (194 км)
Погода в Viana Do Castelo (Португалия) (196 км)
Погода в Oviedo (Испания) (206 км)
Погода в Gijon Musel (Испания) (221 км)

Пояснения к столбцам:

Ветер - указаны скорость ветра в м/с - средняя за 10 мин, порывы в срок и между сроками (в фигурных скобках) и направление, откуда дует ветер: С - северный, СВ - северо-восточный, В - восточный, ЮВ - юго-восточный, Ю - южный, ЮЗ - юго-западный, З - западный, СЗ - северо-западный.
Видимость - горизонтальная дальность видимости в метрах или километрах. При видимости от 1 до 10 км при отсутствии осадков обычно наблюдается дымка, при ухудшении видимости до 1 км и менее - туман. В сухую погоду видимость может ухудшаться дымом, пылью или мглою.
Явления - указаны атмосферные явления, наблюдавшиеся в срок или в последний час перед сроком; фигурными скобками обозначены явления, наблюдавшиеся между сроками (за 1-3 часа до срока); квадратными скобками обозначены град или гололедные отложения с указанием их диаметра в мм.
Облачность - указаны через наклонную черту общая и нижняя облачность в баллах и высота нижней границы облаков в метрах; квадратными скобками обозначены формы облаков: Ci - перистые, Cs - перисто-слоистые, Cc - перисто-кучевые, Ac - высококучевые, As - высокослоистые, Sc - слоисто-кучевые, Ns - слоисто-дождевые, Cu - кучевые, Cb - кучево-дождевые. Подробнее классификацию облаков см. в Атласе облаков (PDF).
T - Температура воздуха - температура, измеренная на высоте 2 м над землей.
Td - Температура точки росы - температура, при понижении до которой содержащийся в воздухе водяной пар достигнет насыщения.
f - Относительная влажность воздуха - влажноcть воздуха, измеренная на высоте 2 м над землей.
Te - Эффективная температура - температура, которую ощущает одетый по сезону человек в тени. Характеристика душности погоды. При расчете учитывается влияние влажности воздуха и скорости ветра на теплоощущения человека.
Tes - Эффективная температура на солнце - температура, которую ощущает человек, с поправкой на солнечный нагрев. Характеристика знойности погоды. Зависит от высоты солнца над горизонтом, облачности и скорости ветра. Ночью, в пасмурную погоду, а также при ветре 12 м/с и более поправка равна нулю.
P - Атмосферное давление - приведенное к уровню моря атмосферное давление.
Po - Атмосферное давление - измеренное на уровне метеостанции атмосферное давление.
Tmin - Минимальная температура - минимум температуры воздуха на высоте 2 м над землей.
Tmax - Максимальная температура - максимум температуры воздуха на высоте 2 м над землей.
R - Количество осадков - Количество выпавших осадков за период времени, мм. При наведении курсора мыши на число - период времени, за который выпало указанное количество осадков.
R24 - Количество осадков - Количество выпавших осадков за 24 часа, мм.
S - Снежный покров - Высота снежного покрова, см. При наведении курсора мыши на число - состояние снежного покрова и степень покрытия местности в баллах.